This is the latest recevied weather packets stored in our database for station/object K7KAR-2. If no packets are shown the sender has not sent any weather packets the latest 10 day(s).
| Time | Temp. | Humidity | Pressure | Rain* | Wind** | Luminosity | Snow |
|---|---|---|---|---|---|---|---|
| 1778298708 | 16.11° C | 10% | 1008.7 hPa | 0 mm | - | 0 W/m² | - |
| 1778298405 | 15.56° C | 10% | 1008.7 hPa | 0 mm | - | 0 W/m² | - |
| 1778298102 | 16.11° C | 10% | 1008.4 hPa | 0 mm | - | 0 W/m² | - |
| 1778297799 | 16.67° C | 10% | 1008.7 hPa | 0 mm | - | 0 W/m² | - |
| 1778297496 | 16.67° C | 10% | 1008.5 hPa | 0 mm | - | 0 W/m² | - |
| 1778297194 | 16.67° C | 10% | 1008.3 hPa | 0 mm | - | 0 W/m² | - |
| 1778296891 | 17.22° C | 10% | 1008.5 hPa | 0 mm | - | 0 W/m² | - |
| 1778296588 | 17.78° C | 10% | 1008.3 hPa | 0 mm | - | 0 W/m² | - |
| 1778296285 | 17.22° C | 10% | 1008.2 hPa | 0 mm | - | 0 W/m² | - |
| 1778295984 | 17.78° C | 10% | 1008.5 hPa | 0 mm | - | 0 W/m² | - |
| 1778295681 | 17.78° C | 10% | 1008.4 hPa | 0 mm | - | 0 W/m² | - |
| 1778295377 | 17.78° C | 10% | 1008.3 hPa | 0 mm | - | 0 W/m² | - |
| 1778295072 | 18.33° C | 10% | 1008.2 hPa | 0 mm | - | 0 W/m² | - |
| 1778294768 | 18.89° C | 10% | 1008.3 hPa | 0 mm | - | 0 W/m² | - |
| 1778294464 | 18.89° C | 10% | 1008.2 hPa | 0 mm | - | 0 W/m² | - |
| 1778294163 | 18.89° C | 10% | 1008.1 hPa | 0 mm | - | 0 W/m² | - |
| 1778293859 | 19.44° C | 10% | 1008.2 hPa | 0 mm | - | 1 W/m² | - |
| 1778293555 | 20° C | 10% | 1007.9 hPa | 0 mm | - | 3 W/m² | - |
| 1778293253 | 20° C | 10% | 1007.8 hPa | 0 mm | - | 5 W/m² | - |
| 1778292950 | 20° C | 10% | 1007.8 hPa | 0 mm | - | 7 W/m² | - |
| 1778292647 | 20° C | 10% | 1007.9 hPa | 0 mm | - | 10 W/m² | - |
| 1778292345 | 20.56° C | 10% | 1007.8 hPa | 0 mm | - | 13 W/m² | - |
| 1778292042 | 20.56° C | 10% | 1007.9 hPa | 0 mm | - | 16 W/m² | - |
| 1778291741 | 20.56° C | 10% | 1007.8 hPa | 0 mm | - | 19 W/m² | - |
| 1778291438 | 21.11° C | 10% | 1007.7 hPa | 0 mm | - | 23 W/m² | - |
* Rain latest hour (hover to see other rain measurements)
** Current wind speed in m/s (hover to see current wind gust speed)